Time,TemperatureF,DewpointF,PressureIn,WindDirection,WindDirectionDegrees,WindSpeedMPH,WindSpeedGustMPH,Humidity,HourlyPrecipIn,Conditions,Clouds,dailyrainin,SoftwareType,DateUTC
2015-03-31 05:45:00,36.7,36.7,29.81,North,0,0.0,-999.0,0,0.00,,,0.00,meteohub,2015-03-31 10:45:00,
2015-03-31 05:50:00,36.7,36.7,29.81,North,0,0.0,0.0,0,0.00,,,0.00,meteohub,2015-03-31 10:50:00,
2015-03-31 05:55:00,36.7,36.7,29.81,North,0,0.0,0.0,0,0.00,,,0.00,meteohub,2015-03-31 10:55:00,
2015-03-31 06:06:00,36.7,36.7,29.81,North,-9999,-999.9,0.0,0,0.00,,,0.00,meteohub,2015-03-31 11:06:00,
2015-03-31 06:11:00,36.7,36.7,29.82,North,-9999,-999.9,-999.0,0,0.00,,,0.00,meteohub,2015-03-31 11:11:00,
2015-03-31 06:17:00,36.7,36.7,29.82,North,-9999,-999.9,-999.0,0,0.00,,,0.00,meteohub,2015-03-31 11:17:00,
2015-03-31 07:03:00,36.9,36.9,29.84,North,-9999,-999.9,-999.0,0,0.00,,,0.00,meteohub,2015-03-31 12:03:00,
2015-03-31 07:08:00,36.9,36.9,29.84,North,-9999,-999.9,-999.0,0,0.00,,,0.00,meteohub,2015-03-31 12:08:00,
2015-03-31 07:13:00,36.9,36.9,29.85,North,-9999,-999.9,-999.0,0,0.00,,,0.00,meteohub,2015-03-31 12:13:00,
2015-03-31 07:49:00,37.0,37.0,29.86,North,-9999,-999.9,-999.0,0,0.00,,,0.00,meteohub,2015-03-31 12:49:00,
2015-03-31 07:54:00,37.0,37.0,29.86,North,-9999,-999.9,-999.0,0,0.00,,,0.00,meteohub,2015-03-31 12:54:00,
2015-03-31 07:59:00,37.0,37.0,29.86,North,-9999,-999.9,-999.0,0,0.38,,,0.38,meteohub,2015-03-31 12:59:00,
2015-03-31 10:00:00,21.0,21.0,29.90,North,-9999,-999.9,-999.0,0,0.00,,,0.38,meteohub,2015-03-31 15:00:00,
2015-03-31 10:05:00,21.0,21.0,29.90,North,-9999,-999.9,-999.0,0,0.00,,,0.38,meteohub,2015-03-31 15:05:00,
2015-03-31 10:10:00,21.0,21.0,29.91,North,-9999,-999.9,-999.0,0,0.00,,,0.38,meteohub,2015-03-31 15:10:00,
2015-03-31 10:15:00,44.2,38.1,29.91,North,-9999,-999.9,-999.0,79,0.00,,,0.38,meteohub,2015-03-31 15:15:00,
2015-03-31 10:20:00,44.2,38.1,29.90,North,-9999,-999.9,-999.0,79,0.00,,,0.38,meteohub,2015-03-31 15:20:00,
2015-03-31 10:26:00,44.2,38.1,29.91,North,-9999,-999.9,-999.0,79,0.00,,,0.38,meteohub,2015-03-31 15:26:00,
2015-03-31 11:25:00,49.1,37.8,29.91,North,-9999,-999.9,-999.0,65,-99.99,,,0.38,meteohub,2015-03-31 16:25:00,
2015-03-31 11:30:00,49.1,37.8,29.91,North,-9999,-999.9,-999.0,65,0.00,,,0.38,meteohub,2015-03-31 16:30:00,
2015-03-31 11:35:00,49.1,37.8,29.91,North,-9999,-999.9,-999.0,65,0.00,,,0.38,meteohub,2015-03-31 16:35:00,
2015-03-31 11:42:00,38.3,26.4,29.91,North,-9999,-999.9,-999.0,62,0.00,,,0.38,meteohub,2015-03-31 16:42:00,
2015-03-31 11:47:00,38.3,26.4,29.91,North,-9999,-999.9,-999.0,62,0.00,,,0.38,meteohub,2015-03-31 16:47:00,
2015-03-31 11:52:00,38.3,26.4,29.91,North,-9999,-999.9,-999.0,62,0.00,,,0.38,meteohub,2015-03-31 16:52:00,